Regional Weather Roundup
Issued by NWS

Home | Current Version | Previous Version | Text Only | Print | Product List | Glossary Off
Versions: 1 2 3 4 5 6 7 8 9 10 11 12 13 14 15 16 17 18 19 20 21 22 23 24 25 26 27 28 29 30 31 32 33 34 35 36 37 38 39 40 41 42 43 44 45 46 47 48 49 50

721
ASUS43 KMKX 222321
RWRWI

WISCONSIN REGIONAL WEATHER ROUNDUP
NATIONAL WEATHER SERVICE MILWAUKEE/SULLIVAN WI
600 PM CDT SAT JUL 22 2017

NOTE: "FAIR" INDICATES FEW OR NO CLOUDS BELOW 12,000 FEET WITH NO
SIGNIFICANT WEATHER AND/OR OBSTRUCTIONS TO VISIBILITY.

WIZ001-002-006>008-014>016-023>028-230000-
NORTHWEST WISCONSIN

CITY           SKY/WX    TMP DP  RH WIND       PRES   REMARKS
SUPERIOR ARPT  NOT AVBL
ASHLAND        SUNNY     74  65  73 NE7       29.81F
HAYWARD        SUNNY     83  64  52 N6        29.81F HX  84
SIREN          SUNNY     85  62  46 NW8       29.81S HX  85
CUMBERLAND     SUNNY     81  61  50 NW8       29.82S HX  81
RICE LAKE      MOSUNNY   83  63  49 W8        29.83S HX  84
CHETEK         PTSUNNY   83  67  58 NW6       29.81S HX  86
LADYSMITH      MOSUNNY   84  65  51 W8        29.82F HX  86
EAU CLAIRE     CLOUDY    76  71  85 W9        29.80R
MENOMONIE      PTSUNNY   80  70  72 S6        29.80S HX  82
NEW RICHMOND   MOSUNNY   83  64  52 NW9       29.82S HX  85
OSCEOLA        SUNNY     86  65  48 W9        29.83S HX  88
$$

WIZ003>005-009-010-017-018-230000-
NORTH CENTRAL WISCONSIN

CITY           SKY/WX    TMP DP  RH WIND       PRES   REMARKS
MANITOWISH WTR CLOUDY    79  64  59 NW13      29.82R HX  81
ARBOR VITAE    CLOUDY    80  67  65 N9        29.80S HX  82
WOODRUFF       CLOUDY    80  67  65 N9        29.80S HX  82
RHINELANDER    MOSUNNY   77  65  66 N9G22     29.81S THUNDER
EAGLE RIVER    MOSUNNY   79  63  58 NW5       29.79F HX  80
LAND O LAKES   MOSUNNY   80  63  56 N9        29.82S HX  81
PHILLIPS       SUNNY     80  66  61 W5        29.80S HX  82
TOMAHAWK         N/A     82  63  52 W10       29.80F HX  83
MEDFORD        MOSUNNY   81  66  60 W6        29.81S HX  83
MERRILL        SUNNY     84  68  57 W7        29.79F HX  87
$$

WIZ029-030-035-036-043>047-230000-
CENTRAL WISCONSIN

CITY           SKY/WX    TMP DP  RH WIND       PRES   REMARKS
WAUSAU         SUNNY     82  66  58 W9        29.77F HX  84
MOSINEE        PTSUNNY   82  66  57 W6        29.81F HX  85
MARSHFIELD     MOSUNNY   84  67  56 W7        29.80S HX  86
STEVENS POINT  MOSUNNY   83  66  55 W8        29.80F HX  85
WAUPACA        SUNNY     87  69  55 S5        29.78F HX  91
WAUTOMA        SUNNY     84  70  62 CALM      29.79F HX  88
WISC RAPIDS    MOSUNNY   86  68  54 VRB6      29.80F HX  89
CAMP DOUGLAS   SUNNY     84  70  63 W3        29.80F HX  88
$$

WIZ011>013-019>022-031-037>040-048>050-230000-
NORTHEAST WISCONSIN

CITY           SKY/WX    TMP DP  RH WIND       PRES   REMARKS
ANTIGO         MOSUNNY   82  67  60 W12       29.80F HX  84
SHAWANO        MOSUNNY   85  68  56 S7        29.77F HX  88
OCONTO         SUNNY     79  66  65 S6        29.78F HX  81
STURGEON BAY     N/A     76  64  66 SE9       29.80F
GREEN BAY      MOSUNNY   82  70  66 S6        29.78F HX  86
MANITOWOC      MOSUNNY   75  65  70 E7        29.81F
APPLETON       MOSUNNY   82  63  51 VRB5      29.79S HX  83
CLINTONVILLE   SUNNY     82  66  57 S6        29.78F HX  85
OSHKOSH        SUNNY     82  69  64 E6        29.79F HX  85
$$

WIZ032>034-041-042-053>061-230000-
SOUTHWEST WISCONSIN

CITY           SKY/WX    TMP DP  RH WIND       PRES   REMARKS
LA CROSSE      SUNNY     85  72  65 S5        29.80S HX  91
SPARTA         SUNNY     82  69  64 CALM      29.82S HX  85
VIROQUA        MOSUNNY   82  72  72 W5        29.84S HX  86
BOSCOBEL       MOSUNNY   85  71  63 CALM      29.81S HX  90
PRAIRIE DU CHI MOSUNNY   83  70  64 W3        29.81S HX  87
PLATTEVILLE    MOSUNNY   83  76  78 CALM      29.83R HX  91
$$

WIZ056-057-062-063-064-067-068-230000-
SOUTH CENTRAL WISCONSIN

CITY           SKY/WX    TMP DP  RH WIND       PRES   REMARKS
REEDSBURG      SUNNY     81  71  71 CALM      29.80F HX  85
BARABOO/DELLS  SUNNY     83  66  56 W3        29.81S HX  85
LONE ROCK      SUNNY     83  71  67 VRB3      29.80S HX  87
MINERAL POINT  SUNNY     82  72  69 CALM      29.83S HX  87
MADISON        PTSUNNY   83  70  64 N3        29.80F HX  87
MIDDLETON      SUNNY     83  70  65 CALM      29.82S HX  87
WATERTOWN      MOSUNNY   80  72  77 CALM      29.80F HX  83
MONROE         SUNNY     81  70  69 N3        29.82S HX  84
JANESVILLE     PTSUNNY   84  70  61 CALM      29.80F HX  88
$$

WIZ051-052-058>065-066-070>072-230000-
SOUTHEAST WISCONSIN

CITY           SKY/WX    TMP DP  RH WIND       PRES   REMARKS
MILWAUKEE      PTSUNNY   78  70  76 E7        29.80F HX  80
WAUKESHA       MOSUNNY   79  68  69 W6        29.82S HX  81
MILWAUKEE/TIMM MOSUNNY   81  66  61 E6        29.81S HX  83
RACINE           N/A     76  70  82 E6        29.82F
KENOSHA        MOSUNNY   78  71  79 E8        29.81S HX  80
FOND DU LAC    SUNNY     82  67  60 CALM      29.80F HX  84
SHEBOYGAN      PTSUNNY   77  67  71 E6        29.81S
WEST BEND      CLOUDY    81  72  74 CALM      29.80F HX  84
JUNEAU         MOSUNNY   80  68  67 CALM      29.82F HX  82
$$

LSZ147-162-230000-
LAKE SUPERIOR

STATION/POSITION TIME  TEMP    WIND        PRES    WAVE
                       AIR SEA DIR/SP/G            HT/PER
                 (UTC) (F)     (DEG/KT/KT) (MB)    (FT/S)
W MID LAKE BUOY  2250   49 47   20/  4/  6 1010.0F   2/ 5
DEVILS ISLAND    2300   54      50/  9/ 10 1010.2F
PORT WING        2300   60      30/ 15/ 17   N/A
SAXON HARBOR     2240   64      50/  7/  8 1009.8F
$$

LMZ867-665-643>646-230000-
LAKE MICHIGAN

STATION/POSITION TIME  TEMP    WIND        PRES    WAVE
                       AIR SEA DIR/SP/G            HT/PER
                 (UTC) (F)     (DEG/KT/KT) (MB)    (FT/S)
CHAMBERS ISLAND  2240   78     120/  2/  5 1008.1S
S GREEN BAY BUOY 2230   78 76  160/  4/  6 1008.7F
N MID LAKE BUOY  2250   70 70  110/  2/  2 1009.3S   0
NORTHPORT PIER   2240   73     140/  5/  7 1009.1R
KEWAUNEE LAKESHO 2254   72     130/  5/  6 1008.8F
SHEBOYGAN LAKESH 2300   70     140/  3/  3 1008.9F
PORT WASHINGTON  2240   72     170/  4/  5 1010.2S
ATWATER BUOY     2209   71 69  130/  2/  4 1009.8F
MILWAUKEE LAKESH 2300   75      90/  1/  1   N/A
S MID LAKE BUOY  2250   69 71   10/  8/  8 1009.2F   1
KENOSHA   LAKESH 2300   75     100/  2/  4 1009.1
$$

TC  - TEMPERATURE IN CELSIUS
VSB - VISIBILITY IN STATUTE MILES
WCI - WIND CHILL INDEX
HX  - HEAT INDEX





USA.gov is the U.S. government's official web portal to all federal, state and local government web resources and services.